Year,Month,Day,Hour,Minute,Value (Times are PST for temperature in C)
2012,09,29,00,00,14.40
2012,09,29,00,01,14.40
2012,09,29,00,02,14.40
2012,09,29,00,03,14.40
2012,09,29,00,04,14.40
2012,09,29,00,05,14.40
2012,09,29,00,06,14.40
2012,09,29,00,07,14.40
2012,09,29,00,08,14.40
2012,09,29,00,09,14.40
2012,09,29,00,10,14.40
2012,09,29,00,11,14.40
2012,09,29,00,12,14.40
2012,09,29,00,13,14.40
2012,09,29,00,14,14.40
2012,09,29,00,15,14.40
2012,09,29,00,16,14.40
2012,09,29,00,17,14.40
2012,09,29,00,18,14.40
2012,09,29,00,19,14.40
2012,09,29,00,20,14.40
2012,09,29,00,21,14.40
2012,09,29,00,22,14.40
2012,09,29,00,23,14.40
2012,09,29,00,24,14.40
2012,09,29,00,25,14.30
2012,09,29,00,26,14.30
2012,09,29,00,27,14.30
2012,09,29,00,28,14.30
2012,09,29,00,29,14.30
2012,09,29,00,30,14.30
2012,09,29,00,31,14.30
2012,09,29,00,32,14.30
2012,09,29,00,33,14.30
2012,09,29,00,34,14.30
2012,09,29,00,35,14.30
2012,09,29,00,36,14.20
2012,09,29,00,37,14.20
2012,09,29,00,38,14.20
2012,09,29,00,39,14.20
2012,09,29,00,40,14.20
2012,09,29,00,41,14.20
2012,09,29,00,42,14.10
2012,09,29,00,43,14.10
2012,09,29,00,44,14.10
2012,09,29,00,45,14.10
2012,09,29,00,46,14.10
2012,09,29,00,47,14.00
2012,09,29,00,48,14.00
2012,09,29,00,49,14.00
2012,09,29,00,50,13.90
2012,09,29,00,51,13.90
2012,09,29,00,52,13.90
2012,09,29,00,53,13.80
2012,09,29,00,54,13.80
2012,09,29,00,55,13.80
2012,09,29,00,56,13.80
2012,09,29,00,57,13.70
2012,09,29,00,58,13.70
2012,09,29,00,59,13.70
2012,09,29,01,00,13.70
2012,09,29,01,01,13.70
2012,09,29,01,02,13.60
2012,09,29,01,03,13.60
2012,09,29,01,04,13.60
2012,09,29,01,05,13.60
2012,09,29,01,06,13.60
2012,09,29,01,07,13.50
2012,09,29,01,08,13.50
2012,09,29,01,09,13.50
2012,09,29,01,10,13.50
2012,09,29,01,11,13.40
2012,09,29,01,12,13.40
2012,09,29,01,13,13.40
2012,09,29,01,14,13.40
2012,09,29,01,15,13.30
2012,09,29,01,16,13.30
2012,09,29,01,17,13.30
2012,09,29,01,18,13.30
2012,09,29,01,19,13.20
2012,09,29,01,20,13.20
2012,09,29,01,21,13.20
2012,09,29,01,22,13.10
2012,09,29,01,23,13.10
2012,09,29,01,24,13.10
2012,09,29,01,25,13.00
2012,09,29,01,26,13.00
2012,09,29,01,27,13.00
2012,09,29,01,28,12.90
2012,09,29,01,29,12.90
2012,09,29,01,30,12.90
2012,09,29,01,31,12.90
2012,09,29,01,32,12.80
2012,09,29,01,33,12.80
2012,09,29,01,34,12.80
2012,09,29,01,35,12.80
2012,09,29,01,36,12.80
2012,09,29,01,37,12.80
2012,09,29,01,38,12.70
2012,09,29,01,39,12.70
2012,09,29,01,40,12.70
2012,09,29,01,41,12.70
2012,09,29,01,42,12.70
2012,09,29,01,43,12.70
2012,09,29,01,44,12.70
2012,09,29,01,45,12.70
2012,09,29,01,46,12.70
2012,09,29,01,47,12.70
2012,09,29,01,48,12.70
2012,09,29,01,49,12.60
2012,09,29,01,50,12.60
2012,09,29,01,51,12.60
2012,09,29,01,52,12.60
2012,09,29,01,53,12.60
2012,09,29,01,54,12.60
2012,09,29,01,55,12.60
2012,09,29,01,56,12.60
2012,09,29,01,57,12.60
2012,09,29,01,58,12.60
2012,09,29,01,59,12.60
2012,09,29,02,00,12.60
2012,09,29,02,01,12.60
2012,09,29,02,02,12.60
2012,09,29,02,03,12.60
2012,09,29,02,04,12.60
2012,09,29,02,05,12.60
2012,09,29,02,06,12.50
2012,09,29,02,07,12.50
2012,09,29,02,08,12.50
2012,09,29,02,09,12.50
2012,09,29,02,10,12.50
2012,09,29,02,11,12.50
2012,09,29,02,12,12.50
2012,09,29,02,13,12.50
2012,09,29,02,14,12.50
2012,09,29,02,15,12.60
2012,09,29,02,16,12.60
2012,09,29,02,17,12.60
2012,09,29,02,18,12.60
2012,09,29,02,19,12.60
2012,09,29,02,20,12.60
2012,09,29,02,21,12.70
2012,09,29,02,22,12.70
2012,09,29,02,23,12.80
2012,09,29,02,24,12.80
2012,09,29,02,25,12.80
2012,09,29,02,26,12.80
2012,09,29,02,27,12.80
2012,09,29,02,28,12.90
2012,09,29,02,29,12.90
2012,09,29,02,30,12.90
2012,09,29,02,31,12.90
2012,09,29,02,32,12.90
2012,09,29,02,33,12.90
2012,09,29,02,34,12.90
2012,09,29,02,35,12.90
2012,09,29,02,36,13.00
2012,09,29,02,37,12.90
2012,09,29,02,38,13.00
2012,09,29,02,39,13.00
2012,09,29,02,40,13.00
2012,09,29,02,41,13.00
2012,09,29,02,42,13.00
2012,09,29,02,43,13.00
2012,09,29,02,44,13.00
2012,09,29,02,45,13.00
2012,09,29,02,46,13.00
2012,09,29,02,47,13.10
2012,09,29,02,48,13.10
2012,09,29,02,49,13.10
2012,09,29,02,50,13.10
2012,09,29,02,51,13.10
2012,09,29,02,52,13.10
2012,09,29,02,53,13.10
2012,09,29,02,54,13.10
2012,09,29,02,55,13.20
2012,09,29,02,56,13.20
2012,09,29,02,57,13.20
2012,09,29,02,58,13.20
2012,09,29,02,59,13.20
2012,09,29,03,00,13.20
2012,09,29,03,01,13.20
2012,09,29,03,02,13.20
2012,09,29,03,03,13.20
2012,09,29,03,04,13.20
2012,09,29,03,05,13.20
2012,09,29,03,06,13.20
2012,09,29,03,07,13.30
2012,09,29,03,08,13.30
2012,09,29,03,09,13.30
2012,09,29,03,10,13.30
2012,09,29,03,11,13.20
2012,09,29,03,12,13.20
2012,09,29,03,13,13.30
2012,09,29,03,14,13.20
2012,09,29,03,15,13.30
2012,09,29,03,16,13.30
2012,09,29,03,17,13.20
2012,09,29,03,18,13.20
2012,09,29,03,19,13.20
2012,09,29,03,20,13.20
2012,09,29,03,21,13.20
2012,09,29,03,22,13.20
2012,09,29,03,23,13.20
2012,09,29,03,24,13.20
2012,09,29,03,25,13.20
2012,09,29,03,26,13.20
2012,09,29,03,27,13.20
2012,09,29,03,28,13.20
2012,09,29,03,29,13.20
2012,09,29,03,30,13.20
2012,09,29,03,31,13.20
2012,09,29,03,32,13.20
2012,09,29,03,33,13.20
2012,09,29,03,34,13.20
2012,09,29,03,35,13.10
2012,09,29,03,36,13.10
2012,09,29,03,37,13.10
2012,09,29,03,38,13.10
2012,09,29,03,39,13.10
2012,09,29,03,40,13.10
2012,09,29,03,41,13.10
2012,09,29,03,42,13.10
2012,09,29,03,43,13.00
2012,09,29,03,44,13.00
2012,09,29,03,45,13.00
2012,09,29,03,46,12.90
2012,09,29,03,47,12.90
2012,09,29,03,48,12.90
2012,09,29,03,49,12.90
2012,09,29,03,50,12.80
2012,09,29,03,51,12.80
2012,09,29,03,52,12.80
2012,09,29,03,53,12.80
2012,09,29,03,54,12.80
2012,09,29,03,55,12.80
2012,09,29,03,56,12.80
2012,09,29,03,57,12.70
2012,09,29,03,58,12.70
2012,09,29,03,59,12.70
2012,09,29,04,00,12.70
2012,09,29,04,01,12.70
2012,09,29,04,02,12.70
2012,09,29,04,03,12.60
2012,09,29,04,04,12.60
2012,09,29,04,05,12.60
2012,09,29,04,06,12.60
2012,09,29,04,07,12.60
2012,09,29,04,08,12.60
2012,09,29,04,09,12.60
2012,09,29,04,10,12.60
2012,09,29,04,11,12.60
2012,09,29,04,12,12.50
2012,09,29,04,13,12.50
2012,09,29,04,14,12.50
2012,09,29,04,15,12.50
2012,09,29,04,16,12.60
2012,09,29,04,17,12.60
2012,09,29,04,18,12.60
2012,09,29,04,19,12.60
2012,09,29,04,20,12.60
2012,09,29,04,21,12.50
2012,09,29,04,22,12.50
2012,09,29,04,23,12.50
2012,09,29,04,24,12.50
2012,09,29,04,25,12.50
2012,09,29,04,26,12.50
2012,09,29,04,27,12.50
2012,09,29,04,28,12.40
2012,09,29,04,29,12.40
2012,09,29,04,30,12.40
2012,09,29,04,31,12.40
2012,09,29,04,32,12.40
2012,09,29,04,33,12.40
2012,09,29,04,34,12.40
2012,09,29,04,35,12.40
2012,09,29,04,36,12.40
2012,09,29,04,37,12.40
2012,09,29,04,38,12.40
2012,09,29,04,39,12.40
2012,09,29,04,40,12.40
2012,09,29,04,41,12.40
2012,09,29,04,42,12.40
2012,09,29,04,43,12.40
2012,09,29,04,44,12.30
2012,09,29,04,45,12.30
2012,09,29,04,46,12.30
2012,09,29,04,47,12.30
2012,09,29,04,48,12.30
2012,09,29,04,49,12.20
2012,09,29,04,50,12.20
2012,09,29,04,51,12.20
2012,09,29,04,52,12.20
2012,09,29,04,53,12.20
2012,09,29,04,54,12.20
2012,09,29,04,55,12.10
2012,09,29,04,56,12.10
2012,09,29,04,57,12.10
2012,09,29,04,58,12.10
2012,09,29,04,59,12.10
2012,09,29,05,00,12.10
2012,09,29,05,01,12.10
2012,09,29,05,02,12.10
2012,09,29,05,03,12.10
2012,09,29,05,04,12.10
2012,09,29,05,05,12.10
2012,09,29,05,06,12.10
2012,09,29,05,07,12.10
2012,09,29,05,08,12.10
2012,09,29,05,09,12.10
2012,09,29,05,10,12.10
2012,09,29,05,11,12.10
2012,09,29,05,12,12.10
2012,09,29,05,13,12.10
2012,09,29,05,14,12.10
2012,09,29,05,15,12.10
2012,09,29,05,16,12.10
2012,09,29,05,17,12.10
2012,09,29,05,18,12.00
2012,09,29,05,19,12.00
2012,09,29,05,20,12.00
2012,09,29,05,21,12.00
2012,09,29,05,22,12.00
2012,09,29,05,23,11.90
2012,09,29,05,24,11.90
2012,09,29,05,25,11.90
2012,09,29,05,26,11.90
2012,09,29,05,27,11.90
2012,09,29,05,28,11.80
2012,09,29,05,29,11.80
2012,09,29,05,30,11.80
2012,09,29,05,31,11.80
2012,09,29,05,32,11.80
2012,09,29,05,33,11.80
2012,09,29,05,34,11.80
2012,09,29,05,35,11.80
2012,09,29,05,36,11.80
2012,09,29,05,37,11.70
2012,09,29,05,38,11.70
2012,09,29,05,39,11.70
2012,09,29,05,40,11.70
2012,09,29,05,41,11.70
2012,09,29,05,42,11.70
2012,09,29,05,43,11.70
2012,09,29,05,44,11.70
2012,09,29,05,45,11.60
2012,09,29,05,46,11.60
2012,09,29,05,47,11.60
2012,09,29,05,48,11.60
2012,09,29,05,49,11.60
2012,09,29,05,50,11.60
2012,09,29,05,51,11.60
2012,09,29,05,52,11.60
2012,09,29,05,53,11.60
2012,09,29,05,54,11.60
2012,09,29,05,55,11.60
2012,09,29,05,56,11.60
2012,09,29,05,57,11.60
2012,09,29,05,58,11.60
2012,09,29,05,59,11.60
2012,09,29,06,00,11.60
2012,09,29,06,01,11.60
2012,09,29,06,02,11.60
2012,09,29,06,03,11.60
2012,09,29,06,04,11.60
2012,09,29,06,05,11.60
2012,09,29,06,06,11.60
2012,09,29,06,07,11.50
2012,09,29,06,08,11.50
2012,09,29,06,09,11.50
2012,09,29,06,10,11.50
2012,09,29,06,11,11.50
2012,09,29,06,12,11.50
2012,09,29,06,13,11.50
2012,09,29,06,14,11.50
2012,09,29,06,15,11.60
2012,09,29,06,16,11.50
2012,09,29,06,17,11.60
2012,09,29,06,18,11.60
2012,09,29,06,19,11.60
2012,09,29,06,20,11.70
2012,09,29,06,21,11.70
2012,09,29,06,22,11.80
2012,09,29,06,23,11.80
2012,09,29,06,24,11.80
2012,09,29,06,25,11.80
2012,09,29,06,26,11.80
2012,09,29,06,27,11.80
2012,09,29,06,28,11.80
2012,09,29,06,29,11.80
2012,09,29,06,30,11.80
2012,09,29,06,31,11.80
2012,09,29,06,32,11.80
2012,09,29,06,33,11.80
2012,09,29,06,34,11.80
2012,09,29,06,35,11.70
2012,09,29,06,36,11.80
2012,09,29,06,37,11.80
2012,09,29,06,38,11.70
2012,09,29,06,39,11.80
2012,09,29,06,40,11.80
2012,09,29,06,41,11.80
2012,09,29,06,42,11.80
2012,09,29,06,43,11.80
2012,09,29,06,44,11.80
2012,09,29,06,45,11.80
2012,09,29,06,46,11.90
2012,09,29,06,47,11.90
2012,09,29,06,48,11.90
2012,09,29,06,49,11.90
2012,09,29,06,50,11.90
2012,09,29,06,51,11.90
2012,09,29,06,52,11.90
2012,09,29,06,53,11.80
2012,09,29,06,54,11.80
2012,09,29,06,55,11.80
2012,09,29,06,56,11.80
2012,09,29,06,57,11.80
2012,09,29,06,58,11.70
2012,09,29,06,59,11.70
2012,09,29,07,00,11.70
2012,09,29,07,01,11.70
2012,09,29,07,02,11.70
2012,09,29,07,03,11.70
2012,09,29,07,04,11.60
2012,09,29,07,05,11.60
2012,09,29,07,06,11.60
2012,09,29,07,07,11.60
2012,09,29,07,08,11.60
2012,09,29,07,09,11.60
2012,09,29,07,10,11.60
2012,09,29,07,11,11.50
2012,09,29,07,12,11.50
2012,09,29,07,13,11.50
2012,09,29,07,14,11.40
2012,09,29,07,15,11.40
2012,09,29,07,16,11.40
2012,09,29,07,17,11.40
2012,09,29,07,18,11.30
2012,09,29,07,19,11.30
2012,09,29,07,20,11.30
2012,09,29,07,21,11.30
2012,09,29,07,22,11.30
2012,09,29,07,23,11.30
2012,09,29,07,24,11.30
2012,09,29,07,25,11.30
2012,09,29,07,26,11.30
2012,09,29,07,27,11.30
2012,09,29,07,28,11.30
2012,09,29,07,29,11.20
2012,09,29,07,30,11.20
2012,09,29,07,31,11.20
2012,09,29,07,32,11.20
2012,09,29,07,33,11.20
2012,09,29,07,34,11.10
2012,09,29,07,35,11.10
2012,09,29,07,36,11.10
2012,09,29,07,37,11.20
2012,09,29,07,38,11.20
2012,09,29,07,39,11.20
2012,09,29,07,40,11.30
2012,09,29,07,41,11.30
2012,09,29,07,42,11.30
2012,09,29,07,43,11.30
2012,09,29,07,44,11.30
2012,09,29,07,45,11.30
2012,09,29,07,46,11.30
2012,09,29,07,47,11.30
2012,09,29,07,48,11.20
2012,09,29,07,49,11.30
2012,09,29,07,50,11.30
2012,09,29,07,51,11.40
2012,09,29,07,52,11.40
2012,09,29,07,53,11.40
2012,09,29,07,54,11.50
2012,09,29,07,55,11.50
2012,09,29,07,56,11.60
2012,09,29,07,57,11.60
2012,09,29,07,58,11.60
2012,09,29,07,59,11.60
2012,09,29,08,00,11.60
2012,09,29,08,01,11.70
2012,09,29,08,02,11.70
2012,09,29,08,03,11.70
2012,09,29,08,04,11.70
2012,09,29,08,05,11.70
2012,09,29,08,06,11.70
2012,09,29,08,07,11.70
2012,09,29,08,08,11.70
2012,09,29,08,09,11.80
2012,09,29,08,10,11.80
2012,09,29,08,11,11.80
2012,09,29,08,12,11.90
2012,09,29,08,13,11.90
2012,09,29,08,14,11.90
2012,09,29,08,15,11.90
2012,09,29,08,16,11.90
2012,09,29,08,17,11.90
2012,09,29,08,18,12.00
2012,09,29,08,19,12.00
2012,09,29,08,20,12.10
2012,09,29,08,21,12.10
2012,09,29,08,22,12.10
2012,09,29,08,23,12.20
2012,09,29,08,24,12.20
2012,09,29,08,25,12.20
2012,09,29,08,26,12.20
2012,09,29,08,27,12.30
2012,09,29,08,28,12.30
2012,09,29,08,29,12.30
2012,09,29,08,30,12.40
2012,09,29,08,31,12.40
2012,09,29,08,32,12.50
2012,09,29,08,33,12.60
2012,09,29,08,34,12.60
2012,09,29,08,35,12.60
2012,09,29,08,36,12.70
2012,09,29,08,37,12.70
2012,09,29,08,38,12.70
2012,09,29,08,39,12.70
2012,09,29,08,40,12.80
2012,09,29,08,41,12.80
2012,09,29,08,42,12.80
2012,09,29,08,43,12.80
2012,09,29,08,44,12.80
2012,09,29,08,45,12.90
2012,09,29,08,46,12.90
2012,09,29,08,47,12.90
2012,09,29,08,48,12.90
2012,09,29,08,49,12.90
2012,09,29,08,50,12.90
2012,09,29,08,51,12.90
2012,09,29,08,52,12.90
2012,09,29,08,53,12.90
2012,09,29,08,54,13.00
2012,09,29,08,55,13.00
2012,09,29,08,56,13.10
2012,09,29,08,57,13.10
2012,09,29,08,58,13.10
2012,09,29,08,59,13.20
2012,09,29,09,00,13.20
2012,09,29,09,01,13.30
2012,09,29,09,02,13.40
2012,09,29,09,03,13.40
2012,09,29,09,04,13.50
2012,09,29,09,05,13.50
2012,09,29,09,06,13.60
2012,09,29,09,07,13.60
2012,09,29,09,08,13.70
2012,09,29,09,09,13.70
2012,09,29,09,10,13.70
2012,09,29,09,11,13.70
2012,09,29,09,12,13.80
2012,09,29,09,13,13.80
2012,09,29,09,14,13.90
2012,09,29,09,15,13.90
2012,09,29,09,16,14.00
2012,09,29,09,17,14.10
2012,09,29,09,18,14.10
2012,09,29,09,19,14.20
2012,09,29,09,20,14.30
2012,09,29,09,21,14.40
2012,09,29,09,22,14.60
2012,09,29,09,23,14.70
2012,09,29,09,24,14.80
2012,09,29,09,25,14.90
2012,09,29,09,26,15.00
2012,09,29,09,27,15.00
2012,09,29,09,28,15.00
2012,09,29,09,29,15.00
2012,09,29,09,30,15.00
2012,09,29,09,31,15.00
2012,09,29,09,32,15.00
2012,09,29,09,33,15.00
2012,09,29,09,34,15.00
2012,09,29,09,35,14.90
2012,09,29,09,36,14.80
2012,09,29,09,37,14.70
2012,09,29,09,38,14.60
2012,09,29,09,39,14.50
2012,09,29,09,40,14.40
2012,09,29,09,41,14.50
2012,09,29,09,42,14.50
2012,09,29,09,43,14.60
2012,09,29,09,44,14.60
2012,09,29,09,45,14.60
2012,09,29,09,46,14.70
2012,09,29,09,47,14.80
2012,09,29,09,48,14.90
2012,09,29,09,49,15.00
2012,09,29,09,50,15.00
2012,09,29,09,51,15.00
2012,09,29,09,52,15.10
2012,09,29,09,53,15.20
2012,09,29,09,54,15.40
2012,09,29,09,55,15.40
2012,09,29,09,56,15.50
2012,09,29,09,57,15.60
2012,09,29,09,58,15.70
2012,09,29,09,59,15.70
2012,09,29,10,00,15.70
2012,09,29,10,01,15.80
2012,09,29,10,02,15.80
2012,09,29,10,03,15.80
2012,09,29,10,04,15.80
2012,09,29,10,05,15.80
2012,09,29,10,06,15.90
2012,09,29,10,07,15.90
2012,09,29,10,08,16.00
2012,09,29,10,09,16.00
2012,09,29,10,10,16.10
2012,09,29,10,11,16.10
2012,09,29,10,12,16.10
2012,09,29,10,13,16.10
2012,09,29,10,14,16.20
2012,09,29,10,15,16.20
2012,09,29,10,16,16.20
2012,09,29,10,17,16.20
2012,09,29,10,18,16.20
2012,09,29,10,19,16.20
2012,09,29,10,20,16.20
2012,09,29,10,21,16.20
2012,09,29,10,22,16.20
2012,09,29,10,23,16.20
2012,09,29,10,24,16.20
2012,09,29,10,25,16.20
2012,09,29,10,26,16.20
2012,09,29,10,27,16.10
2012,09,29,10,28,16.10
2012,09,29,10,29,16.00
2012,09,29,10,30,15.90
2012,09,29,10,31,15.90
2012,09,29,10,32,15.90
2012,09,29,10,33,15.90
2012,09,29,10,34,15.90
2012,09,29,10,35,16.00
2012,09,29,10,36,16.00
2012,09,29,10,37,16.10
2012,09,29,10,38,16.10
2012,09,29,10,39,16.20
2012,09,29,10,40,16.30
2012,09,29,10,41,16.40
2012,09,29,10,42,16.40
2012,09,29,10,43,16.40
2012,09,29,10,44,16.40
2012,09,29,10,45,16.40
2012,09,29,10,46,16.40
2012,09,29,10,47,16.40
2012,09,29,10,48,16.40
2012,09,29,10,49,16.40
2012,09,29,10,50,16.40
2012,09,29,10,51,16.40
2012,09,29,10,52,16.40
2012,09,29,10,53,16.50
2012,09,29,10,54,16.50
2012,09,29,10,55,16.60
2012,09,29,10,56,16.60
2012,09,29,10,57,16.60
2012,09,29,10,58,16.70
2012,09,29,10,59,16.70
2012,09,29,11,00,16.70
2012,09,29,11,01,16.70
2012,09,29,11,02,16.60
2012,09,29,11,03,16.60
2012,09,29,11,04,16.60
2012,09,29,11,05,16.70
2012,09,29,11,06,16.70
2012,09,29,11,07,16.70
2012,09,29,11,08,16.60
2012,09,29,11,09,16.60
2012,09,29,11,10,16.50
2012,09,29,11,11,16.50
2012,09,29,11,12,16.50
2012,09,29,11,13,16.60
2012,09,29,11,14,16.60
2012,09,29,11,15,16.50
2012,09,29,11,16,16.50
2012,09,29,11,17,16.50
2012,09,29,11,18,16.50
2012,09,29,11,19,16.40
2012,09,29,11,20,16.40
2012,09,29,11,21,16.30
2012,09,29,11,22,16.30
2012,09,29,11,23,16.20
2012,09,29,11,24,16.20
2012,09,29,11,25,16.20
2012,09,29,11,26,16.20
2012,09,29,11,27,16.20
2012,09,29,11,28,16.30
2012,09,29,11,29,16.30
2012,09,29,11,30,16.40
2012,09,29,11,31,16.50
2012,09,29,11,32,16.60
2012,09,29,11,33,16.70
2012,09,29,11,34,16.80
2012,09,29,11,35,16.90
2012,09,29,11,36,17.00
2012,09,29,11,37,17.10
2012,09,29,11,38,17.20
2012,09,29,11,39,17.20
2012,09,29,11,40,17.20
2012,09,29,11,41,17.20
2012,09,29,11,42,17.30
2012,09,29,11,43,17.30
2012,09,29,11,44,17.30
2012,09,29,11,45,17.20
2012,09,29,11,46,17.10
2012,09,29,11,47,17.00
2012,09,29,11,48,17.00
2012,09,29,11,49,16.90
2012,09,29,11,50,16.90
2012,09,29,11,51,16.80
2012,09,29,11,52,16.70
2012,09,29,11,53,16.60
2012,09,29,11,54,16.50
2012,09,29,11,55,16.40
2012,09,29,11,56,16.40
2012,09,29,11,57,16.40
2012,09,29,11,58,16.40
2012,09,29,11,59,16.30
2012,09,29,12,00,16.30
2012,09,29,12,01,16.30
2012,09,29,12,02,16.30
2012,09,29,12,03,16.30
2012,09,29,12,04,16.20
2012,09,29,12,05,16.30
2012,09,29,12,06,16.30
2012,09,29,12,07,16.30
2012,09,29,12,08,16.30
2012,09,29,12,09,16.30
2012,09,29,12,10,16.30
2012,09,29,12,11,16.40
2012,09,29,12,12,16.40
2012,09,29,12,13,16.40
2012,09,29,12,14,16.50
2012,09,29,12,15,16.60
2012,09,29,12,16,16.60
2012,09,29,12,17,16.60
2012,09,29,12,18,16.60
2012,09,29,12,19,16.60
2012,09,29,12,20,16.60
2012,09,29,12,21,16.50
2012,09,29,12,22,16.50
2012,09,29,12,23,16.40
2012,09,29,12,24,16.30
2012,09,29,12,25,16.30
2012,09,29,12,26,16.20
2012,09,29,12,27,16.10
2012,09,29,12,28,16.00
2012,09,29,12,29,16.00
2012,09,29,12,30,16.00
2012,09,29,12,31,15.90
2012,09,29,12,32,15.90
2012,09,29,12,33,15.90
2012,09,29,12,34,15.90
2012,09,29,12,35,15.90
2012,09,29,12,36,15.90
2012,09,29,12,37,15.90
2012,09,29,12,38,15.90
2012,09,29,12,39,15.90
2012,09,29,12,40,15.90
2012,09,29,12,41,15.90
2012,09,29,12,42,15.90
2012,09,29,12,43,15.90
2012,09,29,12,44,16.00
2012,09,29,12,45,16.00
2012,09,29,12,46,16.10
2012,09,29,12,47,16.20
2012,09,29,12,48,16.20
2012,09,29,12,49,16.30
2012,09,29,12,50,16.30
2012,09,29,12,51,16.40
2012,09,29,12,52,16.50
2012,09,29,12,53,16.50
2012,09,29,12,54,16.60
2012,09,29,12,55,16.60
2012,09,29,12,56,16.60
2012,09,29,12,57,16.60
2012,09,29,12,58,16.50
2012,09,29,12,59,16.50
2012,09,29,13,00,16.40
2012,09,29,13,01,16.40
2012,09,29,13,02,16.30
2012,09,29,13,03,16.30
2012,09,29,13,04,16.30
2012,09,29,13,05,16.30
2012,09,29,13,06,16.30
2012,09,29,13,07,16.20
2012,09,29,13,08,16.20
2012,09,29,13,09,16.20
2012,09,29,13,10,16.20
2012,09,29,13,11,16.20
2012,09,29,13,12,16.20
2012,09,29,13,13,16.20
2012,09,29,13,14,16.20
2012,09,29,13,15,16.10
2012,09,29,13,16,16.10
2012,09,29,13,17,16.10
2012,09,29,13,18,16.20
2012,09,29,13,19,16.20
2012,09,29,13,20,16.30
2012,09,29,13,21,16.30
2012,09,29,13,22,16.40
2012,09,29,13,23,16.40
2012,09,29,13,24,16.50
2012,09,29,13,25,16.60
2012,09,29,13,26,16.60
2012,09,29,13,27,16.60
2012,09,29,13,28,16.60
2012,09,29,13,29,16.70
2012,09,29,13,30,16.70
2012,09,29,13,31,16.70
2012,09,29,13,32,16.70
2012,09,29,13,33,16.70
2012,09,29,13,34,16.70
2012,09,29,13,35,16.70
2012,09,29,13,36,16.70
2012,09,29,13,37,16.70
2012,09,29,13,38,16.70
2012,09,29,13,39,16.70
2012,09,29,13,40,16.70
2012,09,29,13,41,16.80
2012,09,29,13,42,16.80
2012,09,29,13,43,16.80
2012,09,29,13,44,16.80
2012,09,29,13,45,16.80
2012,09,29,13,46,16.80
2012,09,29,13,47,16.80
2012,09,29,13,48,16.80
2012,09,29,13,49,16.80
2012,09,29,13,50,16.80
2012,09,29,13,51,16.80
2012,09,29,13,52,16.80
2012,09,29,13,53,16.80
2012,09,29,13,54,16.70
2012,09,29,13,55,16.70
2012,09,29,13,56,16.70
2012,09,29,13,57,16.60
2012,09,29,13,58,16.60
2012,09,29,13,59,16.60
2012,09,29,14,00,16.60
2012,09,29,14,01,16.60
2012,09,29,14,02,16.60
2012,09,29,14,03,16.70
2012,09,29,14,04,16.70
2012,09,29,14,05,16.80
2012,09,29,14,06,16.80
2012,09,29,14,07,16.80
2012,09,29,14,08,16.90
2012,09,29,14,09,16.90
2012,09,29,14,10,16.90
2012,09,29,14,11,16.90
2012,09,29,14,12,16.80
2012,09,29,14,13,16.80
2012,09,29,14,14,16.70
2012,09,29,14,15,16.70
2012,09,29,14,16,16.70
2012,09,29,14,17,16.70
2012,09,29,14,18,16.70
2012,09,29,14,19,16.70
2012,09,29,14,20,16.60
2012,09,29,14,21,16.60
2012,09,29,14,22,16.50
2012,09,29,14,23,16.40
2012,09,29,14,24,16.40
2012,09,29,14,25,16.40
2012,09,29,14,26,16.30
2012,09,29,14,27,16.20
2012,09,29,14,28,16.20
2012,09,29,14,29,16.20
2012,09,29,14,30,16.20
2012,09,29,14,31,16.10
2012,09,29,14,32,16.10
2012,09,29,14,33,16.10
2012,09,29,14,34,16.00
2012,09,29,14,35,16.00
2012,09,29,14,36,15.90
2012,09,29,14,37,15.90
2012,09,29,14,38,15.90
2012,09,29,14,39,15.90
2012,09,29,14,40,16.00
2012,09,29,14,41,16.00
2012,09,29,14,42,15.90
2012,09,29,14,43,15.90
2012,09,29,14,44,15.90
2012,09,29,14,45,16.00
2012,09,29,14,46,16.00
2012,09,29,14,47,16.00
2012,09,29,14,48,16.00
2012,09,29,14,49,16.00
2012,09,29,14,50,16.10
2012,09,29,14,51,16.10
2012,09,29,14,52,16.10
2012,09,29,14,53,16.10
2012,09,29,14,54,16.10
2012,09,29,14,55,16.10
2012,09,29,14,56,16.20
2012,09,29,14,57,16.20
2012,09,29,14,58,16.20
2012,09,29,14,59,16.30
2012,09,29,15,00,16.30
2012,09,29,15,01,16.30
2012,09,29,15,02,16.40
2012,09,29,15,03,16.40
2012,09,29,15,04,16.40
2012,09,29,15,05,16.40
2012,09,29,15,06,16.40
2012,09,29,15,07,16.50
2012,09,29,15,08,16.50
2012,09,29,15,09,16.60
2012,09,29,15,10,16.60
2012,09,29,15,11,16.60
2012,09,29,15,12,16.60
2012,09,29,15,13,16.60
2012,09,29,15,14,16.60
2012,09,29,15,15,16.60
2012,09,29,15,16,16.60
2012,09,29,15,17,16.60
2012,09,29,15,18,16.60
2012,09,29,15,19,16.60
2012,09,29,15,20,16.60
2012,09,29,15,21,16.60
2012,09,29,15,22,16.60
2012,09,29,15,23,16.60
2012,09,29,15,24,16.60
2012,09,29,15,25,16.60
2012,09,29,15,26,16.60
2012,09,29,15,27,16.60
2012,09,29,15,28,16.60
2012,09,29,15,29,16.60
2012,09,29,15,30,16.60
2012,09,29,15,31,16.60
2012,09,29,15,32,16.50
2012,09,29,15,33,16.50
2012,09,29,15,34,16.40
2012,09,29,15,35,16.40
2012,09,29,15,36,16.40
2012,09,29,15,37,16.30
2012,09,29,15,38,16.30
2012,09,29,15,39,16.30
2012,09,29,15,40,16.30
2012,09,29,15,41,16.20
2012,09,29,15,42,16.20
2012,09,29,15,43,16.20
2012,09,29,15,44,16.20
2012,09,29,15,45,16.20
2012,09,29,15,46,16.20
2012,09,29,15,47,16.20
2012,09,29,15,48,16.20
2012,09,29,15,49,16.20
2012,09,29,15,50,16.20
2012,09,29,15,51,16.20
2012,09,29,15,52,16.20
2012,09,29,15,53,16.20
2012,09,29,15,54,16.20
2012,09,29,15,55,16.20
2012,09,29,15,56,16.20
2012,09,29,15,57,16.20
2012,09,29,15,58,16.30
2012,09,29,15,59,16.30
2012,09,29,16,00,16.30
2012,09,29,16,01,16.40
2012,09,29,16,02,16.40
2012,09,29,16,03,16.40
2012,09,29,16,04,16.50
2012,09,29,16,05,16.50
2012,09,29,16,06,16.50
2012,09,29,16,07,16.50
2012,09,29,16,08,16.50
2012,09,29,16,09,16.60
2012,09,29,16,10,16.60
2012,09,29,16,11,16.60
2012,09,29,16,12,16.60
2012,09,29,16,13,16.70
2012,09,29,16,14,16.70
2012,09,29,16,15,16.70
2012,09,29,16,16,16.70
2012,09,29,16,17,16.70
2012,09,29,16,18,16.70
2012,09,29,16,19,16.70
2012,09,29,16,20,16.70
2012,09,29,16,21,16.70
2012,09,29,16,22,16.70
2012,09,29,16,23,16.70
2012,09,29,16,24,16.70
2012,09,29,16,25,16.70
2012,09,29,16,26,16.70
2012,09,29,16,27,16.70
2012,09,29,16,28,16.70
2012,09,29,16,29,16.70
2012,09,29,16,30,16.70
2012,09,29,16,31,16.70
2012,09,29,16,32,16.80
2012,09,29,16,33,16.80
2012,09,29,16,34,16.80
2012,09,29,16,35,16.90
2012,09,29,16,36,16.90
2012,09,29,16,37,17.00
2012,09,29,16,38,17.10
2012,09,29,16,39,17.10
2012,09,29,16,40,17.20
2012,09,29,16,41,17.20
2012,09,29,16,42,17.20
2012,09,29,16,43,17.20
2012,09,29,16,44,17.10
2012,09,29,16,45,17.10
2012,09,29,16,46,17.00
2012,09,29,16,47,17.00
2012,09,29,16,48,16.90
2012,09,29,16,49,16.90
2012,09,29,16,50,16.90
2012,09,29,16,51,16.90
2012,09,29,16,52,16.80
2012,09,29,16,53,16.80
2012,09,29,16,54,16.80
2012,09,29,16,55,16.80
2012,09,29,16,56,16.80
2012,09,29,16,57,16.80
2012,09,29,16,58,16.70
2012,09,29,16,59,16.70
2012,09,29,17,00,16.70
2012,09,29,17,01,16.60
2012,09,29,17,02,16.60
2012,09,29,17,03,16.60
2012,09,29,17,04,16.60
2012,09,29,17,05,16.60
2012,09,29,17,06,16.60
2012,09,29,17,07,16.60
2012,09,29,17,08,16.50
2012,09,29,17,09,16.50
2012,09,29,17,10,16.50
2012,09,29,17,11,16.50
2012,09,29,17,12,16.50
2012,09,29,17,13,16.50
2012,09,29,17,14,16.50
2012,09,29,17,15,16.60
2012,09,29,17,16,16.60
2012,09,29,17,17,16.60
2012,09,29,17,18,16.70
2012,09,29,17,19,16.70